Regional Weather Roundup
Issued by NWS Charleston, WV

Home | Current Version | Previous Version | Graphics & Text | Print | Product List | Glossary On
Versions: 1 2 3 4 5 6 7 8 9 10 11 12 13 14 15 16 17 18 19 20 21 22 23 24 25 26 27 28 29 30 31 32 33 34 35 36 37 38 39 40 41 42 43 44 45 46 47 48 49 50
000
ASUS41 KRLX 020610
RWRRLX
West Virginia Regional Weather Roundup
National Weather Service Charleston WV
200 AM EDT WED SEP 02 2015

Note: "fair" indicates few or no clouds below 12,000 feet with no
significant weather and/or obstructions to visibility.

WVZ003-020700-
Northern Panhandle of West Virginia

CITY           SKY/WX    TMP DP  RH WIND       PRES   REMARKS
WHEELING         N/A     70  67  90 CALM      30.12S FOG
$$

WVZ009-020700-
Northwest West Virginia

CITY           SKY/WX    TMP DP  RH WIND       PRES   REMARKS
PARKERSBURG    MOCLDY    69  67  93 CALM      30.14S
$$

WVZ006-020700-
Western West Virginia

CITY           SKY/WX    TMP DP  RH WIND       PRES   REMARKS
HUNTINGTON       N/A     69  68  96 CALM      30.12S FOG
$$

WVZ015-020700-
West Central West Virginia

CITY           SKY/WX    TMP DP  RH WIND       PRES   REMARKS
CHARLESTON       N/A     69  67  93 CALM      30.12F
$$

WVZ022-031-020700-
North Central West Virginia

CITY           SKY/WX    TMP DP  RH WIND       PRES   REMARKS
CLARKSBURG       N/A     68  66  93 CALM      30.13S
MORGANTOWN       N/A     73  65  75 CALM      30.14S
$$

WVZ025-035-042-045-020700-
Southern West Virginia

CITY           SKY/WX    TMP DP  RH WIND       PRES   REMARKS
BECKLEY          N/A     65  62  90 CALM      30.21S
LOGAN            N/A     70  68  94 CALM      30.16S FOG
BLUEFIELD        N/A     69  62  78 W3        30.23F
LEWISBURG      FOG       65  64  94 CALM      30.20F VSB 1/4
$$

WVZ047-020700-
Northern Mountains of West Virginia

CITY           SKY/WX    TMP DP  RH WIND       PRES   REMARKS
ELKINS         CLOUDY    65  62  90 CALM      30.19S FOG
$$

WVZ052-020700-
Eastern Panhandle of West Virginia

CITY           SKY/WX    TMP DP  RH WIND       PRES   REMARKS
MARTINSBURG      N/A     71  67  87 CALM      30.07F FOG
PETERSBURG       N/A     67  66  97 CALM      30.12F FOG
$$


USA.gov is the U.S. government's official web portal to all federal, state and local government web resources and services.